Flag for Germany Weather past 2 weeks in Recklinghausen, North Rhine-Westphalia, Germany

Now
59 °F

Fog.


Feels Like: 59 °F
Forecast: 53 / 62 °F
Wind: 1 mph from Southeast

Location: Duesseldorf

Current Time: Sep 20, 2014 at 4:39:30 AM

Latest Report: Sep 20, 2014 at 4:00 AM


Visibility: 9 mi

Pressure: 29.91 "Hg

Humidity: 95%

Dew point: 57 °F

Location of RecklinghausenLocation

Historic Weather in Recklinghausen — Graph

°F

Recklinghausen temperature yesterday

Maximum temperature yesterday: 75 °F (at 4:00 PM)
Minimum temperature yesterday: 61 °F (at 4:00 AM)
Average temperature yesterday: 66 °F

Past Weeks' High & Low Weather Summary

 TemperatureHumidityPressure
High76 °F (Sep 17, 5:00 PM)95% (Sep 8, 2:00 AM)30.25 "Hg (Sep 8, 2:00 AM)
Low46 °F (Sep 12, 8:00 AM)48% (Sep 17, 6:00 PM)29.83 "Hg (Sep 18, 8:00 PM)
Average62 °F79%30.03 "Hg
* Reported Sep 5 3:00 AM — Sep 20 3:00 AM, Recklinghausen, Weather by CustomWeather, © 2014

Note: Actual official high and low records may vary slightly from our data, if they occured in-between our weather recording intervals... More about our weather records

Advertising

Recklinghausen weather history for previous 24 hours

 ConditionsComfort  
Time TempWeatherWind HumidityBarometerVisibility
3:00 AM
Sep 20
60 °FFog.1 mph94%29.92 "Hg9 mi
2:00 AM61 °FOvercast.2 mph95%29.92 "Hg11 mi
1:00 AM60 °FFog.1 mph93%29.92 "Hg12 mi
12:00 AM62 °FFog.1 mph92%29.92 "Hg19 mi
10:00 PM
Sep 19
65 °FPassing clouds.1 mph89%29.91 "Hg28 mi
9:00 PM65 °FPassing clouds.1 mph87%29.90 "Hg28 mi
8:00 PM67 °FPassing clouds.1 mph79%29.88 "Hg19 mi
7:00 PM70 °FPartly sunny.5 mph74%29.87 "Hg22 mi
6:00 PM72 °FPartly sunny.6 mph68%29.87 "Hg16 mi
4:00 PM75 °FPartly sunny.3 mph62%29.87 "Hg12 mi
3:00 PM74 °FPartly sunny.2 mph67%29.87 "Hg12 mi
2:00 PM74 °FOvercast.2 mph69%29.88 "Hg12 mi
1:00 PM71 °FOvercast.2 mph72%29.88 "Hg12 mi
12:00 PM71 °FPartly sunny.2 mph68%29.87 "Hg16 mi
10:00 AM68 °FOvercast.2 mph83%29.88 "Hg16 mi
9:00 AM63 °FPartly sunny.3 mph91%29.86 "Hg17 mi
8:00 AM63 °FOvercast.3 mph92%29.85 "Hg14 mi
7:00 AM62 °FPassing clouds.3 mph92%29.83 "Hg16 mi
6:00 AM62 °FPassing clouds.3 mph93%29.83 "Hg16 mi
5:00 AM62 °FPassing clouds.5 mph91%29.83 "Hg19 mi
4:00 AM61 °FPassing clouds.2 mph93%29.83 "Hg19 mi
Weather by CustomWeather, © 2014

See weather overviewHow to use our weather pages